| time (UTC) | temp F | wind direction | speed MPH | gust MPH | rain 1hr in | rain 24hr in | rain mn in | humidity % | barometer mb |
| 20260504050529 | 60 | 19 | 0.0 | 1.0 | 0.00 | 0.00 | 0.00 | 82 | 1009.7 |
| 20260504045525 | 60 | 0 | 0.0 | 0.0 | 0.00 | 0.00 | 0.00 | 81 | 1009.8 |
| 20260504045025 | 61 | 0 | 0.0 | 1.0 | 0.00 | 0.00 | 0.00 | 80 | 1009.9 |
| 20260504044539 | 61 | 0 | 0.0 | 1.0 | 0.00 | 0.00 | 0.00 | 79 | 1009.7 |
| 20260504044025 | 62 | 0 | 0.0 | 1.0 | 0.00 | 0.00 | 0.00 | 79 | 1009.8 |
| 20260504043526 | 62 | 0 | 0.0 | 1.0 | 0.00 | 0.00 | 0.00 | 78 | 1009.6 |
| 20260504043039 | 63 | 0 | 0.0 | 1.0 | 0.00 | 0.00 | 0.00 | 78 | 1009.6 |
| 20260504042525 | 63 | 0 | 0.0 | 1.0 | 0.00 | 0.00 | 0.00 | 76 | 1009.6 |
| 20260504042025 | 63 | 22 | 0.0 | 1.0 | 0.00 | 0.00 | 0.00 | 76 | 1009.4 |
| 20260504041542 | 64 | 0 | 0.0 | 1.0 | 0.00 | 0.00 | 0.00 | 74 | 1009.5 |
| 20260504041027 | 65 | 0 | 0.0 | 2.0 | 0.00 | 0.00 | 0.00 | 73 | 1009.4 |
| 20260504040526 | 65 | 21 | 0.0 | 2.0 | 0.00 | 0.00 | 0.00 | 71 | 1009.4 |
| 20260504040100 | 66 | 18 | 0.0 | 1.0 | 0.00 | 0.00 | 0.00 | 71 | 1009.3 |
| 20260504035526 | 66 | 18 | 0.0 | 2.0 | 0.00 | 0.00 | 0.00 | 70 | 1009.1 |
| 20260504035025 | 67 | 18 | 0.0 | 2.0 | 0.00 | 0.00 | 0.00 | 68 | 1009.0 |
| 20260504034541 | 69 | 25 | 0.0 | 1.0 | 0.00 | 0.00 | 0.00 | 65 | 1008.9 |
| 20260504034025 | 69 | 34 | 0.0 | 1.0 | 0.00 | 0.00 | 0.00 | 63 | 1009.0 |
| 20260504033525 | 70 | 34 | 0.0 | 1.0 | 0.00 | 0.00 | 0.00 | 62 | 1008.9 |
| 20260504033040 | 71 | 34 | 0.0 | 2.0 | 0.00 | 0.00 | 0.00 | 61 | 1008.9 |
| 20260504032528 | 72 | 39 | 0.0 | 2.0 | 0.00 | 0.00 | 0.00 | 58 | 1008.8 |
| 20260504032042 | 73 | 33 | 0.0 | 1.0 | 0.00 | 0.00 | 0.00 | 57 | 1008.7 |
| 20260504031540 | 74 | 33 | 0.0 | 1.0 | 0.00 | 0.00 | 0.00 | 55 | 1008.8 |
| 20260504031027 | 75 | 0 | 0.0 | 1.0 | 0.00 | 0.00 | 0.00 | 54 | 1008.8 |
| 20260504030528 | 77 | 33 | 0.0 | 2.0 | 0.00 | 0.00 | 0.00 | 50 | 1008.7 |
| 20260504030038 | 78 | 0 | 0.0 | 4.0 | 0.00 | 0.00 | 0.00 | 49 | 1008.7 |
| 20260504025526 | 79 | 33 | 1.0 | 4.0 | 0.00 | 0.00 | 0.00 | 46 | 1008.7 |
| 20260504025026 | 80 | 337 | 1.0 | 4.0 | 0.00 | 0.00 | 0.00 | 45 | 1008.6 |
| 20260504024542 | 81 | 18 | 1.0 | 6.0 | 0.00 | 0.00 | 0.00 | 43 | 1008.6 |
| 20260504024030 | 81 | 20 | 2.0 | 7.0 | 0.00 | 0.00 | 0.00 | 41 | 1008.6 |
| 20260504023526 | 81 | 24 | 3.0 | 8.0 | 0.00 | 0.00 | 0.00 | 41 | 1008.6 |
| 20260504023045 | 82 | 355 | 4.0 | 10.0 | 0.00 | 0.00 | 0.00 | 40 | 1008.5 |
| 20260504022527 | 82 | 348 | 5.0 | 10.0 | 0.00 | 0.00 | 0.00 | 40 | 1008.6 |
| 20260504022025 | 83 | 40 | 3.0 | 9.0 | 0.00 | 0.00 | 0.00 | 39 | 1008.6 |
| 20260504021541 | 83 | 10 | 2.0 | 8.0 | 0.00 | 0.00 | 0.00 | 40 | 1008.5 |
| 20260504021025 | 83 | 31 | 2.0 | 6.0 | 0.00 | 0.00 | 0.00 | 38 | 1008.6 |
| 20260504020525 | 84 | 19 | 2.0 | 6.0 | 0.00 | 0.00 | 0.00 | 39 | 1008.6 |
| 20260504020040 | 84 | 336 | 2.0 | 11.0 | 0.00 | 0.00 | 0.00 | 39 | 1008.6 |
| 20260504015525 | 84 | 35 | 3.0 | 11.0 | 0.00 | 0.00 | 0.00 | 39 | 1008.5 |
| 20260504015025 | 84 | 28 | 5.0 | 12.0 | 0.00 | 0.00 | 0.00 | 37 | 1008.6 |
| 20260504014542 | 84 | 5 | 3.0 | 12.0 | 0.00 | 0.00 | 0.00 | 39 | 1008.7 |
| 20260504014025 | 84 | 18 | 5.0 | 10.0 | 0.00 | 0.00 | 0.00 | 37 | 1008.6 |
| 20260504013526 | 84 | 24 | 5.0 | 9.0 | 0.00 | 0.00 | 0.00 | 37 | 1008.6 |
| 20260504013042 | 85 | 14 | 4.0 | 11.0 | 0.00 | 0.00 | 0.00 | 36 | 1008.6 |
| 20260504012529 | 85 | 327 | 4.0 | 11.0 | 0.00 | 0.00 | 0.00 | 35 | 1008.6 |
| 20260504012026 | 85 | 51 | 6.0 | 11.0 | 0.00 | 0.00 | 0.00 | 36 | 1008.6 |
| 20260504011542 | 86 | 19 | 4.0 | 9.0 | 0.00 | 0.00 | 0.00 | 36 | 1008.6 |
| 20260504011025 | 86 | 71 | 1.0 | 6.0 | 0.00 | 0.00 | 0.00 | 36 | 1008.8 |
| 20260504010525 | 86 | 122 | 2.0 | 7.0 | 0.00 | 0.00 | 0.00 | 36 | 1008.8 |
| 20260504010049 | 85 | 127 | 3.0 | 10.0 | 0.00 | 0.00 | 0.00 | 38 | 1008.9 |
| 20260504005526 | 85 | 352 | 5.0 | 10.0 | 0.00 | 0.00 | 0.00 | 37 | 1008.9 |
| 20260504005024 | 86 | 10 | 2.0 | 9.0 | 0.00 | 0.00 | 0.00 | 36 | 1009.0 |
| 20260504004545 | 85 | 296 | 2.0 | 9.0 | 0.00 | 0.00 | 0.00 | 34 | 1009.0 |
| 20260504004025 | 85 | 9 | 4.0 | 9.0 | 0.00 | 0.00 | 0.00 | 36 | 1009.1 |
| 20260504003529 | 85 | 337 | 3.0 | 8.0 | 0.00 | 0.00 | 0.00 | 37 | 1009.0 |
| 20260504003040 | 85 | 338 | 2.0 | 10.0 | 0.00 | 0.00 | 0.00 | 40 | 1009.2 |
| 20260504002525 | 85 | 5 | 5.0 | 11.0 | 0.00 | 0.00 | 0.00 | 35 | 1009.3 |
| 20260504002026 | 85 | 35 | 4.0 | 11.0 | 0.00 | 0.00 | 0.00 | 37 | 1009.4 |
| 20260504001555 | 85 | 351 | 5.0 | 10.0 | 0.00 | 0.00 | 0.00 | 34 | 1009.4 |
| 20260504001025 | 86 | 350 | 3.0 | 9.0 | 0.00 | 0.00 | 0.00 | 37 | 1009.5 |
| 20260504000524 | 86 | 89 | 2.0 | 11.0 | 0.00 | 0.00 | 0.00 | 34 | 1009.5 |
| 20260504000042 | 86 | 325 | 3.0 | 11.0 | 0.00 | 0.00 | 0.00 | 36 | 1009.6 |
| 20260503235525 | 86 | 324 | 1.0 | 9.0 | 0.00 | 0.00 | 0.00 | 41 | 1009.5 |
| 20260503235027 | 85 | 342 | 3.0 | 9.0 | 0.00 | 0.00 | 0.00 | 37 | 1009.6 |
| 20260503234543 | 85 | 312 | 2.0 | 12.0 | 0.00 | 0.00 | 0.00 | 38 | 1009.5 |
| 20260503234025 | 85 | 96 | 4.0 | 12.0 | 0.00 | 0.00 | 0.00 | 40 | 1009.5 |
| 20260503233525 | 85 | 22 | 7.0 | 12.0 | 0.00 | 0.00 | 0.00 | 39 | 1009.6 |
| 20260503233043 | 85 | 349 | 1.0 | 10.0 | 0.00 | 0.00 | 0.00 | 39 | 1009.7 |
| 20260503232528 | 85 | 37 | 4.0 | 10.0 | 0.00 | 0.00 | 0.00 | 37 | 1009.8 |
| 20260503232025 | 85 | 342 | 5.0 | 10.0 | 0.00 | 0.00 | 0.00 | 39 | 1009.8 |
| 20260503231539 | 85 | 72 | 2.0 | 10.0 | 0.00 | 0.00 | 0.00 | 41 | 1009.8 |
| 20260503231025 | 85 | 61 | 4.0 | 10.0 | 0.00 | 0.00 | 0.00 | 39 | 1009.9 |
| 20260503230526 | 84 | 49 | 2.0 | 12.0 | 0.00 | 0.00 | 0.00 | 43 | 1010.0 |
| 20260503230041 | 84 | 336 | 5.0 | 12.0 | 0.00 | 0.00 | 0.00 | 40 | 1010.0 |
| 20260503225525 | 83 | 322 | 5.0 | 14.0 | 0.00 | 0.00 | 0.00 | 41 | 1010.1 |
| 20260503225025 | 83 | 335 | 8.0 | 14.0 | 0.00 | 0.00 | 0.00 | 41 | 1010.2 |
| 20260503224535 | 83 | 321 | 6.0 | 14.0 | 0.00 | 0.00 | 0.00 | 40 | 1010.2 |
| 20260503224025 | 83 | 346 | 7.0 | 14.0 | 0.00 | 0.00 | 0.00 | 41 | 1010.3 |
| 20260503223528 | 83 | 335 | 7.0 | 12.0 | 0.00 | 0.00 | 0.00 | 41 | 1010.4 |
| 20260503223044 | 83 | 294 | 7.0 | 12.0 | 0.00 | 0.00 | 0.00 | 42 | 1010.6 |
| 20260503222526 | 83 | 326 | 7.0 | 11.0 | 0.00 | 0.00 | 0.00 | 42 | 1010.7 |
| 20260503222025 | 83 | 346 | 4.0 | 12.0 | 0.00 | 0.00 | 0.00 | 44 | 1010.8 |
| 20260503221551 | 82 | 338 | 7.0 | 13.0 | 0.00 | 0.00 | 0.00 | 41 | 1010.8 |
| 20260503221026 | 82 | 13 | 7.0 | 13.0 | 0.00 | 0.00 | 0.00 | 45 | 1010.9 |
| 20260503220528 | 83 | 336 | 4.0 | 10.0 | 0.00 | 0.00 | 0.00 | 42 | 1010.9 |
| 20260503220043 | 82 | 24 | 5.0 | 10.0 | 0.00 | 0.00 | 0.00 | 46 | 1011.0 |
| 20260503215526 | 82 | 55 | 4.0 | 13.0 | 0.00 | 0.00 | 0.00 | 45 | 1011.1 |
| 20260503215025 | 82 | 19 | 5.0 | 14.0 | 0.00 | 0.00 | 0.00 | 44 | 1011.2 |
| 20260503214540 | 82 | 327 | 6.0 | 14.0 | 0.00 | 0.00 | 0.00 | 44 | 1011.3 |
| 20260503214025 | 82 | 316 | 3.0 | 10.0 | 0.00 | 0.00 | 0.00 | 44 | 1011.3 |
| 20260503213525 | 82 | 121 | 2.0 | 13.0 | 0.00 | 0.00 | 0.00 | 47 | 1011.4 |
| 20260503213040 | 81 | 343 | 5.0 | 13.0 | 0.00 | 0.00 | 0.00 | 46 | 1011.4 |
| 20260503212525 | 81 | 29 | 6.0 | 13.0 | 0.00 | 0.00 | 0.00 | 43 | 1011.5 |
| 20260503212026 | 81 | 14 | 6.0 | 16.0 | 0.00 | 0.00 | 0.00 | 46 | 1011.5 |
| 20260503211539 | 81 | 34 | 6.0 | 16.0 | 0.00 | 0.00 | 0.00 | 44 | 1011.5 |
| 20260503211029 | 80 | 19 | 9.0 | 16.0 | 0.00 | 0.00 | 0.00 | 44 | 1011.6 |
| 20260503210529 | 81 | 22 | 6.0 | 14.0 | 0.00 | 0.00 | 0.00 | 47 | 1011.6 |
| 20260503210045 | 81 | 350 | 3.0 | 12.0 | 0.00 | 0.00 | 0.00 | 46 | 1011.7 |
| 20260503205523 | 80 | 349 | 3.0 | 12.0 | 0.00 | 0.00 | 0.00 | 50 | 1011.7 |
| 20260503205026 | 80 | 38 | 6.0 | 11.0 | 0.00 | 0.00 | 0.00 | 45 | 1011.7 |
| 20260503204544 | 80 | 15 | 3.0 | 11.0 | 0.00 | 0.00 | 0.00 | 48 | 1011.9 |
| 20260503204026 | 80 | 38 | 4.0 | 12.0 | 0.00 | 0.00 | 0.00 | 49 | 1011.8 |
| 20260503203530 | 80 | 309 | 6.0 | 14.0 | 0.00 | 0.00 | 0.00 | 48 | 1012.0 |
| 20260503203041 | 80 | 110 | 5.0 | 14.0 | 0.00 | 0.00 | 0.00 | 50 | 1012.0 |
| 20260503202526 | 80 | 42 | 7.0 | 14.0 | 0.00 | 0.00 | 0.00 | 47 | 1012.0 |
| 20260503202026 | 79 | 19 | 4.0 | 14.0 | 0.00 | 0.00 | 0.00 | 45 | 1012.1 |
| 20260503201541 | 79 | 309 | 4.0 | 14.0 | 0.00 | 0.00 | 0.00 | 49 | 1012.1 |
| 20260503201025 | 79 | 5 | 7.0 | 14.0 | 0.00 | 0.00 | 0.00 | 45 | 1012.2 |
| 20260503200525 | 79 | 19 | 4.0 | 14.0 | 0.00 | 0.00 | 0.00 | 49 | 1012.3 |
| 20260503200041 | 79 | 128 | 3.0 | 14.0 | 0.00 | 0.00 | 0.00 | 49 | 1012.4 |
| 20260503195526 | 78 | 303 | 5.0 | 14.0 | 0.00 | 0.00 | 0.00 | 47 | 1012.5 |
| 20260503195029 | 79 | 155 | 3.0 | 8.0 | 0.00 | 0.00 | 0.00 | 48 | 1012.6 |
| 20260503194542 | 78 | 107 | 3.0 | 8.0 | 0.00 | 0.00 | 0.00 | 52 | 1012.7 |
| 20260503194022 | 78 | 12 | 4.0 | 13.0 | 0.00 | 0.00 | 0.00 | 51 | 1012.8 |
| 20260503193528 | 78 | 68 | 5.0 | 13.0 | 0.00 | 0.00 | 0.00 | 51 | 1012.9 |
| 20260503193044 | 77 | 0 | 2.0 | 12.0 | 0.00 | 0.00 | 0.00 | 52 | 1013.0 |
| 20260503192523 | 77 | 333 | 4.0 | 12.0 | 0.00 | 0.00 | 0.00 | 52 | 1013.1 |
| 20260503192025 | 77 | 50 | 5.0 | 11.0 | 0.00 | 0.00 | 0.00 | 53 | 1013.2 |
| 20260503191542 | 76 | 31 | 4.0 | 11.0 | 0.00 | 0.00 | 0.00 | 53 | 1013.2 |
| 20260503191027 | 76 | 321 | 7.0 | 11.0 | 0.00 | 0.00 | 0.00 | 53 | 1013.2 |
| 20260503190524 | 76 | 351 | 4.0 | 11.0 | 0.00 | 0.00 | 0.00 | 55 | 1013.2 |
| 20260503190042 | 75 | 307 | 5.0 | 12.0 | 0.00 | 0.00 | 0.00 | 56 | 1013.3 |
| 20260503185524 | 76 | 342 | 4.0 | 12.0 | 0.00 | 0.00 | 0.00 | 52 | 1013.2 |
| 20260503185024 | 75 | 14 | 4.0 | 12.0 | 0.00 | 0.00 | 0.00 | 53 | 1013.3 |
| 20260503184540 | 75 | 73 | 5.0 | 12.0 | 0.00 | 0.00 | 0.00 | 56 | 1013.4 |
| 20260503184025 | 74 | 133 | 4.0 | 12.0 | 0.00 | 0.00 | 0.00 | 54 | 1013.4 |
| 20260503183525 | 74 | 22 | 4.0 | 10.0 | 0.00 | 0.00 | 0.00 | 56 | 1013.5 |
| 20260503183056 | 74 | 342 | 4.0 | 10.0 | 0.00 | 0.00 | 0.00 | 58 | 1013.5 |
| 20260503182525 | 74 | 71 | 4.0 | 12.0 | 0.00 | 0.00 | 0.00 | 57 | 1013.6 |
| 20260503182027 | 73 | 9 | 4.0 | 13.0 | 0.00 | 0.00 | 0.00 | 55 | 1013.6 |
| 20260503181554 | 73 | 316 | 4.0 | 13.0 | 0.00 | 0.00 | 0.00 | 56 | 1013.8 |
| 20260503181025 | 72 | 26 | 7.0 | 13.0 | 0.00 | 0.00 | 0.00 | 56 | 1013.7 |
| 20260503180525 | 72 | 333 | 5.0 | 13.0 | 0.00 | 0.00 | 0.00 | 57 | 1013.8 |
| 20260503180038 | 72 | 10 | 5.0 | 13.0 | 0.00 | 0.00 | 0.00 | 57 | 1013.9 |
| 20260503175525 | 72 | 339 | 6.0 | 13.0 | 0.00 | 0.00 | 0.00 | 56 | 1013.8 |
| 20260503175025 | 72 | 32 | 6.0 | 13.0 | 0.00 | 0.00 | 0.00 | 57 | 1013.9 |
| 20260503174543 | 71 | 327 | 9.0 | 13.0 | 0.00 | 0.00 | 0.00 | 58 | 1013.9 |
| 20260503174025 | 71 | 17 | 7.0 | 13.0 | 0.00 | 0.00 | 0.00 | 57 | 1013.9 |
| 20260503173525 | 71 | 322 | 7.0 | 13.0 | 0.00 | 0.00 | 0.00 | 58 | 1013.9 |
| 20260503173050 | 71 | 349 | 6.0 | 12.0 | 0.00 | 0.00 | 0.00 | 60 | 1013.9 |
| 20260503172529 | 71 | 40 | 5.0 | 12.0 | 0.00 | 0.00 | 0.00 | 60 | 1014.0 |
| 20260503172026 | 70 | 333 | 4.0 | 10.0 | 0.00 | 0.00 | 0.00 | 60 | 1013.9 |
| 20260503171542 | 70 | 28 | 4.0 | 13.0 | 0.00 | 0.00 | 0.00 | 62 | 1013.9 |
| 20260503171025 | 69 | 50 | 5.0 | 14.0 | 0.00 | 0.00 | 0.00 | 60 | 1014.1 |
| 20260503170525 | 69 | 321 | 7.0 | 14.0 | 0.00 | 0.00 | 0.00 | 63 | 1014.0 |
| 20260503150525 | 57 | 19 | 2.0 | 5.0 | 0.00 | 0.00 | 0.00 | 88 | 1014.4 |
| 20260503131028 | 45 | 0 | 0.0 | 1.0 | 0.00 | 0.00 | 0.00 | 97 | 1013.9 |
| 20260503130524 | 46 | 0 | 0.0 | 1.0 | 0.00 | 0.00 | 0.00 | 97 | 1013.8 |
| 20260503110526 | 47 | 0 | 0.0 | 1.0 | 0.00 | 0.00 | 0.00 | 96 | 1014.2 |
| 20260503081544 | 50 | 0 | 0.0 | 0.0 | 0.00 | 0.00 | 0.00 | 93 | 1014.5 |
| 20260503081026 | 50 | 0 | 0.0 | 0.0 | 0.00 | 0.00 | 0.00 | 93 | 1014.5 |
| 20260503080526 | 50 | 0 | 0.0 | 0.0 | 0.00 | 0.00 | 0.00 | 93 | 1014.5 |
| 20260503072527 | 51 | 0 | 0.0 | 1.0 | 0.00 | 0.00 | 0.00 | 93 | 1014.6 |
| 20260503072027 | 51 | 335 | 0.0 | 1.0 | 0.00 | 0.00 | 0.00 | 92 | 1014.7 |
| 20260503071541 | 51 | 0 | 0.0 | 1.0 | 0.00 | 0.00 | 0.00 | 92 | 1014.7 |
| 20260503071026 | 52 | 0 | 0.0 | 1.0 | 0.00 | 0.00 | 0.00 | 91 | 1014.6 |
| 20260503070526 | 52 | 0 | 0.0 | 1.0 | 0.00 | 0.00 | 0.00 | 92 | 1014.7 |
| 20260503055026 | 55 | 0 | 0.0 | 1.0 | 0.00 | 0.00 | 0.00 | 85 | 1014.4 |
| 20260503054543 | 56 | 0 | 0.0 | 0.0 | 0.00 | 0.00 | 0.00 | 85 | 1014.4 |
| 20260503054026 | 56 | 0 | 0.0 | 1.0 | 0.00 | 0.00 | 0.00 | 84 | 1014.4 |
| 20260503053526 | 57 | 0 | 0.0 | 1.0 | 0.00 | 0.00 | 0.00 | 82 | 1014.5 |
| 20260503053040 | 58 | 63 | 0.0 | 2.0 | 0.00 | 0.00 | 0.00 | 81 | 1014.5 |
| 20260503052528 | 58 | 63 | 0.0 | 2.0 | 0.00 | 0.00 | 0.00 | 79 | 1014.5 |
| 20260503052026 | 59 | 46 | 1.0 | 2.0 | 0.00 | 0.00 | 0.00 | 79 | 1014.5 |
| 20260503051548 | 59 | 11 | 1.0 | 2.0 | 0.00 | 0.00 | 0.00 | 78 | 1014.4 |